Wind_Speed
78 78 82 83 84 89 91 93 95 95 95 95 97 101 106 107 107 108 111 113 116 118 121 124 124 111 108 97 95 88 76 65 58 60 56 50 47 53
83 84 90 90 91 94 97 98 97 100 102 103 105 107 110 113 113 113 118 118 121 120 122 125 120 114 107 103 94 89 79 64 56 60 57 54 46 51
87 90 94 95 97 98 99 99 101 103 109 112 114 115 114 115 115 118 119 124 125 127 130 126 118 111 107 101 97 90 81 64 54 53 59 57 55 51
92 94 96 99 100 101 102 105 105 108 115 119 122 117 118 117 121 121 125 127 131 128 128 125 117 110 109 101 99 92 80 63 54 51 53 57 61 59
97 98 100 101 103 104 107 109 112 115 119 120 120 121 123 124 123 127 131 136 133 135 134 124 119 111 108 103 98 95 81 69 59 55 61 65 67 67
99 100 102 105 106 108 111 115 118 120 120 120 122 125 127 128 130 134 135 132 136 132 124 125 115 109 106 103 100 92 80 72 66 61 62 66 72 76
103 104 107 108 111 113 116 119 121 122 124 124 125 126 128 131 135 138 133 137 132 128 122 117 113 109 105 102 96 89 80 74 71 66 67 67 75 82
109 112 114 114 116 118 120 122 124 124 125 125 126 129 134 137 140 133 136 132 128 126 116 113 109 106 102 97 92 87 79 74 71 69 69 69 70 75
114 115 117 119 120 121 123 125 126 127 128 129 131 132 141 141 137 140 130 127 125 118 112 108 107 99 96 92 89 81 77 73 71 66 62 62 65 69
119 119 119 121 122 125 125 127 128 130 131 135 139 138 139 141 136 131 126 121 118 112 108 100 99 94 88 85 83 80 76 71 67 61 57 56 59 64
119 120 121 122 125 127 130 133 135 135 140 138 140 138 138 134 126 120 117 109 109 108 101 91 93 85 78 75 78 80 76 68 63 56 51 50 56 63
122 124 127 129 129 130 134 136 137 138 138 135 137 132 127 123 116 111 108 107 104 101 98 89 85 76 63 71 77 77 71 63 57 51 46 49 56 62
127 128 132 132 132 134 135 134 136 137 131 131 125 121 115 111 109 107 105 101 96 96 91 83 79 71 61 62 76 76 69 62 51 44 41 49 57 61
127 130 129 133 131 132 132 130 130 125 120 118 113 110 108 107 105 102 100 96 92 90 86 78 67 65 63 62 63 73 67 57 50 40 39 48 59 60
115 117 116 117 117 119 117 116 113 110 108 106 105 105 103 100 98 95 92 90 88 87 77 66 64 65 63 59 58 64 61 54 43 35 42 51 60 60
101 104 104 104 105 105 104 101 100 98 99 100 100 98 96 94 90 88 88 87 84 79 71 66 63 62 60 57 55 56 52 50 45 36 44 55 59 57
93 93 92 92 92 92 92 92 92 93 94 93 91 90 88 87 86 86 84 82 74 70 71 68 62 59 59 55 50 46 48 48 44 44 46 56 57 54
83 84 83 83 84 85 84 86 86 86 86 87 88 85 83 84 84 83 79 74 70 70 67 63 60 58 56 53 45 44 40 49 48 43 45 54 55 49
74 75 75 75 77 77 78 79 80 80 81 81 79 81 81 81 81 79 74 71 69 66 64 61 57 52 51 51 47 15 28 48 43 33 44 52 49 43
67 67 67 69 70 71 72 73 73 75 76 76 79 79 79 79 76 74 71 67 64 62 62 57 51 46 43 44 46 18 31 48 32 30 46 46 40 37
60 61 63 64 65 66 67 70 72 73 75 76 79 79 78 74 72 69 65 62 60 58 57 54 47 40 37 40 40 28 32 46 22 31 43 39 33 28
58 58 57 59 62 65 68 70 73 76 78 79 78 75 72 70 66 63 59 58 56 53 52 49 42 36 34 37 32 30 32 38 26 32 39 32 28 27
53 55 58 61 64 67 71 72 73 74 75 74 72 70 67 64 60 58 56 54 52 50 47 44 36 31 32 33 29 30 29 29 28 32 36 29 28 29
Wind_Direction
273 277 277 280 279 282 286 288 291 292 293 296 299 299 299 301 301 302 305 307 310 310 311 314 317 317 316 318 316 315 312 304 295 285 282 269 253 244
279 280 281 282 283 285 288 291 294 296 297 298 298 299 299 300 301 303 305 309 308 311 312 314 315 313 314 314 314 313 311 303 289 282 276 269 254 243
277 277 280 283 285 288 291 294 294 295 295 296 297 297 298 299 302 305 307 307 309 310 312 313 312 311 311 312 311 310 307 298 284 275 272 267 258 243
274 277 279 282 285 288 290 291 292 293 294 296 297 298 300 302 304 306 304 307 307 309 311 311 310 311 310 309 309 308 303 291 279 266 262 264 260 249
274 276 280 282 285 288 289 289 290 291 292 294 295 297 298 300 301 302 302 304 308 310 308 307 308 308 308 307 307 305 299 289 278 260 254 251 251 249
276 278 281 282 284 284 285 287 288 290 291 292 294 296 297 299 301 302 304 305 307 306 306 307 306 306 306 306 304 301 295 288 280 271 257 248 245 244
273 275 276 279 280 282 283 285 286 288 290 292 293 294 296 299 300 302 305 305 304 304 306 304 305 304 303 304 301 297 292 287 279 275 266 255 246 244
273 274 277 279 280 281 282 284 286 288 288 290 291 294 297 298 301 302 303 303 303 302 303 301 301 301 302 301 298 295 291 282 277 272 267 263 257 249
273 275 277 279 281 283 284 285 286 288 289 290 292 294 296 297 299 302 299 299 299 300 300 299 299 301 301 299 295 291 285 280 277 273 268 262 254 249
276 277 279 279 281 281 283 284 286 287 289 290 293 295 296 298 297 298 299 298 297 296 296 298 300 300 298 296 293 288 283 280 278 274 268 260 253 246
275 275 277 280 281 281 281 284 286 288 290 292 293 294 293 296 297 296 296 294 294 295 298 300 298 297 298 293 289 285 282 281 279 275 268 261 252 245
276 276 278 280 283 283 283 285 286 288 290 291 291 293 294 294 294 293 294 294 297 299 299 299 298 297 296 291 289 285 283 281 279 275 268 257 250 245
274 274 276 278 280 281 283 284 285 287 288 290 291 292 291 292 292 293 295 297 299 298 298 299 298 295 290 287 289 286 285 283 281 271 260 254 249 244
272 272 276 277 279 280 282 284 284 287 288 288 289 290 290 291 294 295 297 297 298 298 299 298 294 291 290 287 283 285 283 282 278 269 255 246 247 244
273 276 278 280 280 279 281 283 285 285 285 287 287 289 292 293 294 296 297 298 299 299 298 294 293 292 290 286 283 280 282 281 271 261 252 246 245 244
278 278 279 279 279 280 281 282 283 284 284 286 289 291 291 293 295 297 298 299 299 300 297 295 294 293 289 286 283 281 277 275 271 252 244 245 245 245
274 276 278 278 280 280 281 282 283 284 286 288 290 292 293 295 297 298 298 298 301 300 299 297 295 292 290 288 285 277 275 272 262 254 240 244 245 243
274 276 277 278 279 281 282 283 285 286 288 290 290 292 295 297 298 297 299 301 301 300 297 295 294 293 292 290 281 278 272 267 258 248 242 243 247 243
275 278 280 281 283 284 284 284 286 287 288 289 293 295 297 298 297 299 301 301 301 298 295 294 294 293 294 292 285 254 250 255 256 245 240 244 246 245
281 281 282 283 283 285 285 285 288 288 290 294 296 296 297 298 300 301 301 299 298 296 295 294 293 293 290 284 279 249 241 260 262 239 240 244 244 243
284 284 284 284 285 286 288 289 290 293 295 296 297 298 298 300 300 300 299 297 296 295 294 294 294 292 284 275 273 263 241 257 250 239 242 244 243 235
283 283 285 286 287 287 289 293 296 297 297 296 296 297 300 300 299 298 297 296 295 294 294 292 292 287 278 272 269 260 249 250 242 238 244 241 232 222
284 285 286 288 291 291 291 291 293 296 296 298 299 300 300 299 299 297 296 296 295 294 292 291 289 280 274 269 266 258 251 247 240 236 239 234 224 219
Height
10533 10529 10523 10521 10517 10512 10508 10505 10502 10499 10497 10495 10491 10483 10471 10466 10461 10451 10442 10433 10419 10407 10398 10388 10377 10367 10358 10353 10345 10339 10334 10329 10322 10313 10312 10317 10319 10324
10510 10506 10501 10498 10496 10493 10488 10484 10477 10470 10465 10465 10464 10459 10448 10438 10434 10425 10413 10403 10393 10381 10372 10364 10353 10342 10334 10327 10322 10315 10311 10310 10304 10295 10291 10296 10301 10304
10492 10488 10482 10479 10474 10471 10467 10463 10457 10451 10442 10437 10435 10432 10427 10416 10408 10396 10385 10373 10362 10357 10350 10338 10328 10317 10309 10301 10295 10292 10289 10287 10282 10276 10272 10277 10280 10284
10474 10471 10465 10460 10455 10449 10447 10443 10439 10431 10421 10411 10404 10397 10392 10385 10377 10366 10356 10347 10336 10329 10321 10313 10300 10292 10281 10275 10268 10265 10263 10259 10259 10256 10256 10257 10259 10263
10455 10451 10446 10439 10437 10432 10426 10421 10414 10409 10401 10391 10379 10373 10368 10363 10356 10346 10332 10321 10309 10297 10290 10281 10271 10264 10255 10246 10241 10237 10233 10229 10231 10232 10232 10234 10234 10239
10433 10430 10425 10421 10418 10413 10406 10399 10392 10385 10379 10370 10360 10350 10343 10337 10329 10318 10306 10297 10285 10272 10266 10252 10242 10235 10228 10222 10216 10209 10204 10201 10201 10204 10208 10209 10210 10210
10413 10410 10403 10401 10395 10390 10384 10376 10369 10362 10354 10346 10337 10326 10317 10309 10300 10290 10281 10271 10254 10243 10240 10223 10216 10210 10203 10196 10186 10178 10177 10177 10175 10175 10177 10181 10182 10182
10389 10385 10381 10376 10371 10365 10360 10352 10344 10337 10329 10323 10312 10301 10288 10279 10271 10259 10250 10240 10230 10213 10214 10198 10191 10186 10176 10167 10154 10147 10148 10146 10146 10147 10147 10149 10153 10156
10362 10359 10355 10350 10343 10338 10331 10325 10317 10309 10302 10293 10285 10276 10260 10253 10246 10234 10223 10214 10203 10191 10190 10178 10164 10160 10149 10139 10125 10119 10116 10117 10116 10118 10120 10121 10123 10125
10337 10333 10328 10321 10316 10309 10305 10296 10290 10282 10274 10265 10255 10246 10233 10224 10215 10204 10194 10184 10174 10164 10159 10159 10139 10136 10128 10114 10097 10089 10088 10089 10090 10093 10095 10096 10097 10099
10307 10303 10297 10292 10286 10282 10272 10266 10258 10251 10243 10232 10223 10215 10205 10195 10186 10179 10167 10158 10147 10136 10126 10126 10112 10112 10105 10088 10071 10062 10062 10065 10065 10069 10071 10072 10070 10071
10281 10273 10266 10260 10256 10251 10242 10235 10228 10221 10215 10205 10193 10185 10175 10166 10156 10147 10137 10128 10118 10108 10095 10096 10084 10080 10084 10060 10045 10035 10036 10040 10043 10046 10048 10046 10044 10046
10248 10243 10237 10234 10228 10221 10213 10205 10199 10192 10182 10176 10165 10158 10146 10136 10126 10116 10109 10100 10090 10080 10069 10069 10060 10053 10054 10048 10020 10011 10013 10015 10021 10023 10026 10023 10021 10024
10216 10211 10209 10203 10197 10192 10185 10177 10168 10162 10154 10146 10135 10125 10116 10108 10099 10089 10080 10070 10062 10054 10045 10040 10037 10030 10026 10022 10011 9986 9990 9999 9999 10003 10003 10001 9998 10003
10188 10184 10180 10175 10170 10161 10156 10148 10142 10136 10125 10116 10107 10100 10092 10083 10072 10064 10053 10046 10037 10025 10019 10016 10012 10004 10000 9996 9991 9977 9974 9974 9979 9983 9980 9977 9977 9984
10162 10154 10149 10145 10139 10134 10128 10123 10116 10109 10099 10091 10084 10076 10066 10057 10048 10039 10031 10022 10014 10002 9992 9990 9987 9981 9975 9972 9969 9961 9959 9958 9956 9961 9959 9956 9959 9967
10134 10130 10126 10119 10114 10108 10102 10097 10090 10083 10075 10067 10059 10051 10042 10033 10023 10015 10008 10000 9991 9981 9972 9966 9963 9958 9952 9950 9947 9946 9940 9939 9940 9939 9941 9938 9942 9950
10111 10107 10103 10098 10091 10086 10080 10073 10067 10059 10051 10043 10036 10027 10019 10011 10002 9992 9984 9976 9969 9960 9953 9947 9943 9937 9930 9925 9927 9926 9925 9918 9916 9922 9925 9924 9928 9938
10090 10085 10081 10075 10070 10063 10057 10050 10045 10039 10032 10023 10014 10006 9998 9990 9981 9970 9962 9955 9948 9940 9932 9928 9924 9921 9914 9907 9901 9911 9906 9898 9901 9912 9911 9910 9917 9926
10069 10063 10058 10053 10047 10041 10035 10029 10023 10016 10008 10000 9992 9985 9977 9968 9958 9950 9942 9935 9929 9921 9913 9908 9906 9904 9901 9896 9889 9898 9893 9883 9894 9899 9896 9899 9907 9914
10047 10043 10038 10033 10028 10021 10015 10008 10002 9994 9987 9980 9971 9961 9953 9946 9939 9931 9923 9916 9910 9903 9896 9890 9888 9888 9886 9881 9879 9883 9884 9876 9883 9888 9886 9892 9899 9906
10031 10025 10020 10015 10010 10004 9997 9988 9980 9973 9967 9959 9949 9940 9934 9926 9919 9911 9904 9897 9890 9886 9880 9874 9873 9873 9870 9867 9868 9870 9870 9870 9875 9876 9877 9885 9891 9897
10014 10009 10003 9998 9993 9986 9979 9972 9966 9957 9946 9936 9928 9920 9914 9906 9899 9892 9886 9880 9875 9869 9865 9861 9861 9860 9857 9855 9857 9857 9858 9861 9864 9866 9870 9877 9883 9887